[[{"header":{"parameterUnit":"m.s-1","parameterCategory":2,"la1":30.2991,"la2":30.254,"lo1":-89.0895,"lo2":-89.0444,"dy":0.0017,"dx":0.0017,"nx":28,"ny":28,"refTime":"2024-12-31T03:00:00:Z","depth":"0","parameterNumber":2,"parameterNumberName":"U-component_of_CURRENTS"},"data":[0,0,0,0,0,0,0,0,0,0,0,0,0,0,0,0,0,0,0,0,0,0,0,0,0,0,0,0,0,0,0,0,0,0,0,0,0,0,0,0,0,0,0,0,0,0,0,0,0,0,0,0,0,0,0,0,0,0,0.2298,0.2299,0,0.2289,0.2289,0.2288,0.2286,0.2286,0.2287,0.2287,0.2282,0.2282,0.2281,0,0,0,0,0,0,0,0,0,0,0,0,0,0.2297,0.2297,0.2298,0.2299,0.2299,0.2289,0.2289,0.2288,0.2286,0.2286,0.2287,0.2287,0.2282,0.2282,0.2281,0,0,0,0,0,0,0,0,0,0,0,0,0,0.2291,0.2297,0.2298,0.2298,0.2298,0.2289,0.2289,0.2288,0.2286,0.2286,0.2287,0.2287,0.2282,0.2282,0.2281,0.2268,0,0,0.2279,0.2279,0,0,0,0,0,0,0,0,0.2292,0.2291,0.2298,0.2298,0.2298,0.2291,0.2286,0.2283,0.2286,0.2288,0.2287,0.2287,0.2287,0.2286,0.2279,0.2268,0.2268,0.2279,0.2279,0.2279,0.2278,0,0,0,0,0,0,0,0.2292,0.2291,0.2292,0.2298,0.2298,0.2293,0.2292,0.2285,0.2283,0.2288,0.2288,0.2291,0.2287,0.228,0.2279,0.2268,0.2279,0.2279,0.2278,0.2278,0.2279,0.228,0,0,0,0,0,0,0.2299,0.2292,0.2292,0.2292,0.2299,0.2293,0.2292,0.2291,0.2283,0.2283,0.2291,0.2291,0.2281,0.228,0.2279,0.2295,0.2279,0.2278,0.2278,0.2279,0.2279,0.228,0,0,0,0,0,0,0.2299,0.2299,0.2293,0.2294,0.2293,0.2293,0.2291,0.2291,0.2287,0.2286,0.2285,0.2289,0.2281,0.228,0.2281,0.2294,0.2278,0.2277,0.2278,0.2279,0.228,0.2307,0,0,0,0,0,0,0.2298,0.2298,0.2297,0.2294,0.2294,0.2287,0.2291,0.229,0.2289,0.229,0.2284,0.2284,0.2281,0.2282,0.228,0.2293,0.2277,0.2278,0.2279,0.2279,0.2306,0.2308,0.2311,0,0,0,0,0,0.2298,0.2292,0.2297,0.2297,0.2292,0.2287,0.2285,0.2285,0.2289,0.2284,0.2287,0.2284,0.2286,0.2281,0.2279,0.2292,0.2278,0.2278,0.2279,0.2304,0.2308,0.2311,0,0,0,0,0,0,0.228,0.2291,0.2296,0.2291,0.2291,0.2288,0.2284,0.2285,0.2282,0.2286,0.2284,0.2284,0.2291,0.2285,0.228,0.2295,0.2283,0.2283,0.2302,0.2306,0.2308,0.2319,0.2276,0,0,0,0,0,0.2279,0.2283,0.2288,0.2283,0.2285,0.2286,0.2283,0.2285,0.2285,0.2284,0.228,0.2283,0.2292,0.2293,0.2293,0.2295,0.2303,0.2304,0.2306,0.2309,0.2316,0.2344,0.235,0.2283,0.2283,0.2283,0,0,0.227,0.2278,0.2279,0.2281,0.2282,0.2289,0.2284,0.2284,0.2292,0.2284,0.2288,0.2289,0.2294,0.2303,0.2306,0.23,0.2331,0.231,0.2312,0.2318,0.2346,0.2353,0.2359,0.2283,0.2283,0.2283,0,0,0.2261,0.2263,0.2268,0.2274,0.2283,0.2286,0.2288,0.2287,0.2289,0.2293,0.2298,0.2308,0.2305,0.2319,0.2327,0.2342,0.2343,0.2338,0.2362,0.2389,0.2395,0.24,0.2414,0.2421,0.2341,0.2341,0.2341,0,0.2252,0.2258,0.2266,0.2276,0.2281,0.2288,0.2294,0.23,0.2298,0.2308,0.2299,0.2321,0.2319,0.2352,0.2358,0.235,0.2359,0.235,0.2393,0.2399,0.2404,0.2417,0.2424,0.2342,0.2342,0.2342,0.2342,0,0.2252,0.2258,0.226,0.2282,0.2288,0.229,0.2307,0.2313,0.2318,0.233,0.2352,0.2353,0.237,0.2371,0.2369,0.2407,0.24,0.2393,0.2387,0.2413,0.2425,0.2431,0.2344,0.2344,0.2343,0.2343,0,0,0.2221,0.2254,0.2255,0.2263,0.2291,0.229,0.2318,0.2339,0.2364,0.2368,0.2397,0.2412,0.2418,0.2426,0.2426,0.2446,0.2486,0.2435,0.2436,0.2453,0.254,0.2493,0.2496,0.2488,0.249,0.2491,0.2532,0,0.2216,0.2231,0.2254,0.2266,0.2271,0.2299,0.2324,0.2352,0.2376,0.2406,0.2427,0.2452,0.2439,0.2449,0.2471,0.2486,0.2505,0.2475,0.2509,0.251,0.2469,0.2503,0.2409,0.2433,0.2538,0.2539,0.254,0,0.2203,0.2216,0.2226,0.2258,0.2265,0.2279,0.2321,0.2348,0.241,0.2435,0.2476,0.2491,0.2532,0.2508,0.2559,0.254,0.2543,0.2548,0.255,0.2503,0.2476,0.2426,0.2442,0.2408,0.255,0.255,0.2549,0,0.2162,0.2192,0.2196,0.2206,0.225,0.2262,0.229,0.2351,0.2386,0.2456,0.2487,0.2541,0.2565,0.2588,0.26,0.2584,0.2647,0.2628,0.2588,0.2585,0.251,0.2497,0.2501,0.266,0.266,0.266,0.266,0,0.2136,0.2138,0.2176,0.2175,0.2193,0.2234,0.2269,0.2317,0.2391,0.2436,0.2494,0.2532,0.2586,0.2622,0.2625,0.2633,0.2672,0.2602,0.2598,0.2514,0.2502,0.2473,0.2456,0.2662,0.2661,0.2661,0.2661,0,0.2086,0.211,0.2117,0.2157,0.2171,0.2183,0.2253,0.2284,0.2363,0.2423,0.2445,0.2542,0.2594,0.2634,0.2681,0.266,0.2601,0.266,0.2552,0.2534,0.2446,0.2433,0.2331,0.2252,0.2623,0.2622,0.2622,0,0.206,0.2058,0.2094,0.21,0.2115,0.2146,0.2172,0.226,0.2299,0.2416,0.2436,0.252,0.2571,0.2635,0.263,0.2642,0.2568,0.2537,0.2486,0.2438,0.2422,0.2325,0.2259,0.2398,0.2396,0.2394,0.2392,0,0.2013,0.2028,0.2036,0.2052,0.2067,0.2093,0.2136,0.2165,0.2264,0.232,0.2397,0.2453,0.2535,0.252,0.2542,0.253,0.2418,0.2494,0.2478,0.2276,0.2138,0.2061,0.2373,0.2374,0.2376,0.2378,0.2379,0.2379,0.1978,0.1974,0.1987,0.1995,0.2012,0.202,0.2019,0.2073,0.2122,0.2185,0.2295,0.2352,0.2403,0.2433,0.2405,0.232,0.2301,0.2243,0.2242,0.2157,0.2041,0.2309,0.2282,0.2284,0.2285,0.2286,0.2286,0,0.1926,0.1926,0.1931,0.1927,0.1912,0.195,0.1976,0.1964,0.1976,0.208,0.2138,0.2197,0.2198,0.2227,0.2185,0.2094,0.1984,0.2033,0.1892,0.1847,0.2126,0.2079,0.1966,0.1966,0.1966,0.1966,0.1966,0.1966,0.1897,0.1876,0.1875,0.1824,0.182,0.1778,0.1774,0.1775,0.183,0.1862,0.1906,0.1973,0.2093,0.2115,0.2035,0.1968,0.1814,0.1714,0.1714,0.1952,0.1971,0.199,0.1943,0.1803,0.1803,0.1343,0.134,0.1337]},{"header":{"parameterUnit":"m.s-1","parameterCategory":2,"la1":30.2991,"la2":30.254,"lo1":-89.0895,"lo2":-89.0444,"dy":0.0017,"dx":0.0017,"nx":28,"ny":28,"refTime":"2024-12-31T03:00:00:Z","depth":"0","parameterNumber":3,"parameterNumberName":"V-component_of_CURRENTS"},"data":[0,0,0,0,0,0,0,0,0,0,0,0,0,0,0,0,0,0,0,0,0,0,0,0,0,0,0,0,0,0,0,0,0,0,0,0,0,0,0,0,0,0,0,0,0,0,0,0,0,0,0,0,0,0,0,0,0,0,-0.0117,-0.0118,0,-0.0152,-0.0153,-0.0154,-0.0193,-0.0194,-0.0194,-0.0195,-0.028,-0.0281,-0.0283,0,0,0,0,0,0,0,0,0,0,0,0,0,-0.0106,-0.0106,-0.0117,-0.0118,-0.0118,-0.0152,-0.0153,-0.0154,-0.0193,-0.0194,-0.0194,-0.0195,-0.0279,-0.0281,-0.0283,0,0,0,0,0,0,0,0,0,0,0,0,0,-0.0125,-0.0106,-0.0117,-0.0141,-0.0143,-0.0152,-0.0153,-0.0154,-0.0193,-0.0194,-0.0194,-0.0195,-0.0278,-0.0281,-0.0284,-0.0288,0,0,-0.0292,-0.0294,0,0,0,0,0,0,0,0,-0.0124,-0.0125,-0.0137,-0.0139,-0.0142,-0.0168,-0.018,-0.0201,-0.0193,-0.0176,-0.0195,-0.0195,-0.0245,-0.0251,-0.0258,-0.0292,-0.0296,-0.0293,-0.0294,-0.0296,-0.0296,0,0,0,0,0,0,0,-0.0122,-0.0124,-0.0133,-0.0137,-0.014,-0.0156,-0.016,-0.0184,-0.0209,-0.0178,-0.018,-0.0181,-0.0247,-0.0255,-0.026,-0.0297,-0.0293,-0.0295,-0.0297,-0.0298,-0.0338,-0.0337,0,0,0,0,0,0,-0.0112,-0.0123,-0.0132,-0.0134,-0.0132,-0.0156,-0.016,-0.016,-0.0208,-0.0215,-0.018,-0.0182,-0.025,-0.0257,-0.0263,-0.0267,-0.0295,-0.0298,-0.03,-0.0338,-0.0338,-0.0337,0,0,0,0,0,0,-0.0112,-0.0113,-0.0131,-0.0128,-0.0131,-0.0155,-0.0155,-0.016,-0.0168,-0.0209,-0.0217,-0.0182,-0.0251,-0.0259,-0.0282,-0.0271,-0.0299,-0.0302,-0.0339,-0.0338,-0.0337,-0.0278,0,0,0,0,0,0,-0.0112,-0.0113,-0.0109,-0.0127,-0.0131,-0.0133,-0.0155,-0.0161,-0.0166,-0.017,-0.0213,-0.0222,-0.0252,-0.0278,-0.0285,-0.0275,-0.0304,-0.034,-0.0339,-0.0338,-0.028,-0.0275,-0.027,0,0,0,0,0,-0.0111,-0.0103,-0.0108,-0.0109,-0.0125,-0.0132,-0.0136,-0.0156,-0.0165,-0.0166,-0.0194,-0.022,-0.0275,-0.0279,-0.0288,-0.0279,-0.034,-0.0339,-0.0338,-0.0283,-0.0276,-0.027,0,0,0,0,0,0,-0.0094,-0.0106,-0.0113,-0.0108,-0.0117,-0.0138,-0.0139,-0.015,-0.0171,-0.0176,-0.0216,-0.0226,-0.0242,-0.0267,-0.027,-0.0286,-0.0311,-0.0311,-0.0266,-0.026,-0.0255,-0.0235,-0.0306,0,0,0,0,0,-0.0087,-0.0087,-0.0099,-0.0095,-0.0098,-0.0116,-0.0121,-0.0133,-0.0153,-0.0163,-0.0191,-0.0219,-0.0242,-0.0256,-0.0282,-0.0291,-0.0308,-0.0289,-0.0284,-0.0279,-0.0268,-0.0283,-0.0278,-0.0332,-0.0332,-0.0332,0,0,-0.0079,-0.0085,-0.0085,-0.0092,-0.0101,-0.0094,-0.0121,-0.0125,-0.012,-0.0169,-0.0174,-0.0205,-0.0241,-0.0252,-0.0261,-0.0272,-0.0273,-0.0278,-0.0273,-0.0265,-0.0281,-0.0276,-0.0271,-0.0331,-0.0332,-0.0332,0,0,-0.0058,-0.0068,-0.0058,-0.0062,-0.007,-0.0079,-0.0076,-0.0092,-0.0102,-0.0111,-0.0143,-0.0162,-0.0199,-0.0217,-0.0232,-0.0212,-0.0246,-0.0223,-0.018,-0.0194,-0.019,-0.0186,-0.0199,-0.0197,-0.0218,-0.0218,-0.0218,0,-0.0046,-0.0033,-0.0055,-0.0044,-0.0039,-0.0066,-0.0047,-0.006,-0.0081,-0.0081,-0.0106,-0.0145,-0.0179,-0.0183,-0.0178,-0.0199,-0.0214,-0.0201,-0.0187,-0.0184,-0.0181,-0.0195,-0.0194,-0.0215,-0.0215,-0.0216,-0.0216,0,-0.0015,-0.0004,0.0002,0.0009,0.0009,0.0019,0.0004,-0.0001,-0.0016,-0.0024,-0.0037,-0.0083,-0.0102,-0.0118,-0.0144,-0.0137,-0.0156,-0.018,-0.0201,-0.0171,-0.0189,-0.0188,-0.0211,-0.0212,-0.0213,-0.0214,0,0,0.0017,0.0024,0.0029,0.0044,0.004,0.0047,0.0051,0.0057,0.0075,0.0039,0.0054,0.001,-0.0012,-0.003,-0.0067,-0.0081,-0.008,-0.0117,-0.0119,-0.0126,-0.011,-0.0122,-0.0124,-0.0102,-0.0102,-0.0102,-0.0129,0,0.0054,0.0089,0.0081,0.012,0.014,0.0118,0.0129,0.0127,0.012,0.0125,0.0078,0.0074,0.0021,0.0012,-0.001,-0.0062,-0.0076,-0.007,-0.014,-0.0142,-0.0154,-0.0122,-0.0113,-0.0137,-0.0129,-0.0129,-0.0129,0,0.0096,0.0115,0.0157,0.0182,0.0189,0.0203,0.0224,0.0235,0.023,0.0221,0.0204,0.0168,0.0139,0.0087,0.002,0.0025,-0.0031,-0.0076,-0.0079,-0.0109,-0.0153,-0.0166,-0.0136,-0.0244,-0.0128,-0.0129,-0.0129,0,0.0139,0.0173,0.021,0.0217,0.0236,0.0247,0.0259,0.0267,0.0294,0.0288,0.03,0.0253,0.0234,0.0157,0.0057,0.0041,-0.0019,-0.0056,-0.012,-0.0122,-0.0136,-0.0139,-0.0214,-0.0096,-0.0096,-0.0096,-0.0096,0,0.0188,0.0219,0.0232,0.0251,0.0302,0.0296,0.0352,0.0352,0.0374,0.0419,0.0357,0.0373,0.0251,0.0194,0.0093,-0.0006,0.0007,-0.01,-0.0124,-0.0115,-0.0116,-0.0229,-0.0306,-0.0097,-0.0097,-0.0097,-0.0097,0,0.0231,0.0238,0.0284,0.0309,0.0323,0.036,0.0414,0.0458,0.0462,0.0514,0.0513,0.0473,0.04,0.0272,0.0153,0.0052,-0.0118,-0.0091,-0.0071,-0.0093,-0.0254,-0.0328,-0.0433,-0.0495,-0.016,-0.0161,-0.0161,0,0.0256,0.0283,0.033,0.0365,0.0378,0.0432,0.0475,0.05,0.0554,0.058,0.0611,0.0557,0.0536,0.0355,0.0169,-0.0003,-0.0126,-0.0115,-0.0145,-0.025,-0.0351,-0.0401,-0.0449,-0.0143,-0.0143,-0.0143,-0.0143,0,0.0307,0.0319,0.0357,0.0427,0.0476,0.0543,0.0604,0.0658,0.0692,0.0733,0.0776,0.0761,0.0587,0.0429,0.0185,0.0053,-0.02,-0.0123,-0.0236,-0.0341,-0.0395,-0.047,-0.0143,-0.0144,-0.0144,-0.0144,-0.0144,-0.0144,0.0345,0.038,0.0427,0.0496,0.0558,0.0638,0.0701,0.0773,0.0861,0.092,0.0902,0.0903,0.0654,0.0333,0.0144,-0.0197,-0.0216,-0.03,-0.038,-0.0418,-0.0483,-0.0154,-0.0183,-0.0183,-0.0183,-0.0184,-0.0184,0,0.0392,0.0429,0.0495,0.0572,0.0644,0.0668,0.0778,0.0843,0.095,0.1004,0.1037,0.0911,0.0625,0.0302,-0.0151,-0.0394,-0.0497,-0.0543,-0.0615,-0.0652,-0.0357,-0.036,-0.0422,-0.0422,-0.0422,-0.0422,-0.0422,-0.0422,0.0416,0.0481,0.0511,0.0628,0.0684,0.0783,0.0848,0.0944,0.1013,0.1065,0.1057,0.1014,0.0738,0.0018,-0.0502,-0.0637,-0.0838,-0.0879,-0.0983,-0.0785,-0.0768,-0.0752,-0.0772,-0.0919,-0.092,-0.1232,-0.1235,-0.1238]}],[{"header":{"parameterUnit":"m.s-1","parameterCategory":2,"la1":30.2991,"la2":30.254,"lo1":-89.0895,"lo2":-89.0444,"dy":0.0017,"dx":0.0017,"nx":28,"ny":28,"refTime":"2024-12-31T03:00:00:Z","depth":"2","parameterNumber":2,"parameterNumberName":"U-component_of_CURRENTS"},"data":[0,0,0,0,0,0,0,0,0,0,0,0,0,0,0,0,0,0,0,0,0,0,0,0,0,0,0,0,0,0,0,0,0,0,0,0,0,0,0,0,0,0,0,0,0,0,0,0,0,0,0,0,0,0,0,0,0,0,0.2192,0.2193,0,0.2188,0.2188,0.2188,0.2184,0.2184,0.2184,0.2185,0.2187,0.2187,0.2187,0,0,0,0,0,0,0,0,0,0,0,0,0,0.2183,0.2183,0.2192,0.2193,0.2193,0.2188,0.2188,0.2188,0.2184,0.2184,0.2184,0.2185,0.2187,0.2187,0.2187,0,0,0,0,0,0,0,0,0,0,0,0,0,0.2181,0.2183,0.2192,0.2192,0.2193,0.2188,0.2188,0.2188,0.2184,0.2184,0.2184,0.2185,0.2187,0.2187,0.2187,0.218,0,0,0.2187,0.2186,0,0,0,0,0,0,0,0,0.2182,0.2181,0.2192,0.2192,0.2193,0.2189,0.2186,0.2186,0.2184,0.2184,0.2185,0.2185,0.219,0.219,0.2184,0.218,0.218,0.2187,0.2186,0.2186,0.2186,0,0,0,0,0,0,0,0.2182,0.2181,0.2188,0.2192,0.2193,0.2188,0.2188,0.2186,0.2183,0.2184,0.2185,0.2188,0.219,0.2184,0.2184,0.218,0.2187,0.2186,0.2186,0.2186,0.2208,0.2209,0,0,0,0,0,0,0.2188,0.2182,0.2188,0.2188,0.2191,0.2188,0.2188,0.2188,0.2183,0.2184,0.2188,0.2188,0.2185,0.2185,0.2185,0.221,0.2186,0.2186,0.2186,0.2207,0.2208,0.2209,0,0,0,0,0,0,0.2188,0.2189,0.2188,0.2187,0.2187,0.2189,0.2188,0.2188,0.219,0.2187,0.2187,0.2193,0.2185,0.2185,0.2191,0.2209,0.2186,0.2186,0.2206,0.2208,0.2208,0.224,0,0,0,0,0,0,0.2187,0.2188,0.2191,0.2188,0.2188,0.2187,0.2188,0.2187,0.2193,0.2193,0.2191,0.2191,0.2185,0.2191,0.2191,0.2209,0.2186,0.2206,0.2207,0.2208,0.2238,0.2242,0.2245,0,0,0,0,0,0.2187,0.2185,0.2191,0.2192,0.2191,0.2187,0.2186,0.2186,0.2193,0.219,0.2195,0.2191,0.2199,0.2191,0.2191,0.2209,0.2205,0.2207,0.2208,0.2237,0.2241,0.2245,0,0,0,0,0,0,0.2174,0.2184,0.2191,0.219,0.2192,0.2187,0.2188,0.2191,0.2192,0.2198,0.2195,0.2195,0.2208,0.2203,0.2194,0.222,0.2204,0.2205,0.2226,0.223,0.2234,0.2238,0.2186,0,0,0,0,0,0.2176,0.2182,0.2186,0.2186,0.219,0.2192,0.2193,0.2195,0.2196,0.2197,0.2196,0.2202,0.2212,0.2216,0.2217,0.2227,0.2232,0.2241,0.2244,0.2247,0.2251,0.2278,0.2285,0.2214,0.2214,0.2214,0,0,0.2171,0.2179,0.2181,0.2186,0.2189,0.2196,0.2193,0.2196,0.2206,0.2198,0.2208,0.2211,0.2217,0.223,0.2236,0.223,0.2269,0.2249,0.2252,0.2254,0.2281,0.2287,0.2294,0.2215,0.2215,0.2215,0,0,0.2167,0.2173,0.2179,0.2185,0.2197,0.22,0.2205,0.2206,0.221,0.222,0.2224,0.2238,0.2242,0.2254,0.2262,0.2286,0.2285,0.2288,0.2312,0.2339,0.2345,0.2351,0.2362,0.2368,0.2292,0.2292,0.2292,0,0.2163,0.217,0.2178,0.2189,0.2196,0.2205,0.2212,0.222,0.2223,0.2235,0.2228,0.2257,0.2257,0.2291,0.2299,0.2295,0.2304,0.2296,0.2344,0.235,0.2355,0.2365,0.2372,0.2294,0.2294,0.2294,0.2294,0,0.2165,0.2175,0.2178,0.22,0.2208,0.2212,0.223,0.224,0.225,0.2263,0.2291,0.2293,0.2314,0.2319,0.2316,0.2357,0.2349,0.2344,0.2334,0.2364,0.2373,0.2379,0.2297,0.2296,0.2295,0.2295,0,0,0.2142,0.2174,0.2176,0.2186,0.2213,0.2214,0.2244,0.2267,0.2294,0.2304,0.2336,0.2355,0.2363,0.2372,0.2375,0.2396,0.2435,0.2387,0.2387,0.2399,0.2488,0.2438,0.244,0.2442,0.2443,0.2444,0.2478,0,0.2139,0.2156,0.2177,0.2193,0.22,0.2227,0.2254,0.2283,0.2309,0.2342,0.2366,0.2394,0.2384,0.2398,0.2421,0.2435,0.2454,0.2426,0.2456,0.2457,0.241,0.2446,0.223,0.2239,0.2484,0.2485,0.2486,0,0.213,0.2143,0.2156,0.219,0.2197,0.2213,0.2258,0.2285,0.2346,0.2374,0.2417,0.2434,0.2476,0.2456,0.2504,0.2489,0.2491,0.2495,0.2497,0.2443,0.2419,0.2249,0.2241,0.2496,0.2495,0.2495,0.2494,0,0.2094,0.2126,0.2133,0.2143,0.2186,0.2202,0.223,0.2291,0.2326,0.2397,0.2429,0.2483,0.2511,0.2533,0.2543,0.253,0.2587,0.257,0.2526,0.2522,0.234,0.2318,0.26,0.2599,0.2599,0.2599,0.2599,0,0.2072,0.2078,0.2116,0.2117,0.2139,0.2179,0.2217,0.2264,0.2338,0.2381,0.244,0.2477,0.2532,0.2565,0.2567,0.257,0.261,0.2537,0.2533,0.2344,0.2323,0.2546,0.2539,0.2601,0.26,0.26,0.26,0,0.2028,0.2053,0.2063,0.2105,0.2119,0.2135,0.2205,0.2236,0.2315,0.2373,0.2396,0.2489,0.2536,0.2574,0.2617,0.2594,0.2603,0.2588,0.2359,0.2327,0.2512,0.2506,0.2546,0.2545,0.2543,0.2542,0.2542,0,0.2005,0.2006,0.2044,0.2052,0.2069,0.2103,0.213,0.2216,0.2253,0.2366,0.2384,0.2464,0.2506,0.2561,0.2534,0.2536,0.2585,0.2329,0.2265,0.2517,0.2509,0.2506,0.2502,0.2032,0.2027,0.2023,0.202,0,0.1963,0.1979,0.199,0.2007,0.2026,0.2052,0.2095,0.2122,0.2217,0.2269,0.2338,0.2384,0.2439,0.2347,0.2356,0.2326,0.2314,0.2248,0.2573,0.2087,0.2037,0.2028,0.204,0.1984,0.1987,0.199,0.1992,0.1993,0.1933,0.193,0.1945,0.1955,0.1973,0.198,0.1979,0.2023,0.2065,0.2099,0.2208,0.2191,0.2202,0.2111,0.2042,0.198,0.2149,0.2029,0.2039,0.2054,0.1996,0.1948,0.1867,0.1869,0.1872,0.1874,0.1876,0,0.1882,0.1885,0.1892,0.189,0.1872,0.1914,0.1936,0.1902,0.1898,0.1941,0.1971,0.1795,0.1732,0.1743,0.1595,0.16,0.1568,0.1526,0.1449,0.1486,0.1519,0.1432,0.1154,0.1151,0.1149,0.1147,0,0,0.1855,0.1834,0.1832,0.1782,0.1782,0.1731,0.1725,0.1682,0.1677,0.1615,0.1573,0.1667,0.1708,0.1408,0.1365,0.1232,0.1354,0.1185,0.1767,0.1716,0.1746,0.1815,0.1725,0,0,0,0,0]},{"header":{"parameterUnit":"m.s-1","parameterCategory":2,"la1":30.2991,"la2":30.254,"lo1":-89.0895,"lo2":-89.0444,"dy":0.0017,"dx":0.0017,"nx":28,"ny":28,"refTime":"2024-12-31T03:00:00:Z","depth":"2","parameterNumber":3,"parameterNumberName":"V-component_of_CURRENTS"},"data":[0,0,0,0,0,0,0,0,0,0,0,0,0,0,0,0,0,0,0,0,0,0,0,0,0,0,0,0,0,0,0,0,0,0,0,0,0,0,0,0,0,0,0,0,0,0,0,0,0,0,0,0,0,0,0,0,0,0,0.0064,0.0063,0,0.0033,0.0033,0.0032,-0.0002,-0.0002,-0.0002,-0.0003,-0.0073,-0.0074,-0.0076,0,0,0,0,0,0,0,0,0,0,0,0,0,0.0068,0.0068,0.0064,0.0063,0.0063,0.0033,0.0033,0.0032,-0.0001,-0.0002,-0.0002,-0.0003,-0.0072,-0.0074,-0.0076,0,0,0,0,0,0,0,0,0,0,0,0,0,0.0054,0.0068,0.0064,0.0043,0.0041,0.0034,0.0033,0.0032,-0.0001,-0.0002,-0.0003,-0.0003,-0.0072,-0.0074,-0.0076,-0.0078,0,0,-0.0083,-0.0084,0,0,0,0,0,0,0,0,0.0055,0.0053,0.0047,0.0045,0.0043,0.002,0.0009,-0.0006,-0.0001,0.0014,-0.0003,-0.0003,-0.0044,-0.0049,-0.0054,-0.0081,-0.0084,-0.0083,-0.0085,-0.0085,-0.0086,0,0,0,0,0,0,0,0.0056,0.0054,0.005,0.0047,0.0044,0.0028,0.0025,0.0006,-0.0013,0.0012,0.001,0.0009,-0.0046,-0.0052,-0.0056,-0.0085,-0.0083,-0.0085,-0.0086,-0.0087,-0.0132,-0.0132,0,0,0,0,0,0,0.0064,0.0056,0.0051,0.005,0.0049,0.0028,0.0025,0.0027,-0.0012,-0.0018,0.0009,0.0007,-0.0048,-0.0054,-0.0059,-0.0068,-0.0085,-0.0088,-0.0089,-0.0132,-0.0132,-0.0132,0,0,0,0,0,0,0.0064,0.0064,0.0053,0.0053,0.005,0.0029,0.0031,0.0027,0.0016,-0.0014,-0.0021,0.0002,-0.0048,-0.0056,-0.0075,-0.0071,-0.0089,-0.0091,-0.0132,-0.0132,-0.0132,-0.0084,0,0,0,0,0,0,0.0064,0.0064,0.0066,0.0053,0.0051,0.0048,0.0032,0.0027,0.0017,0.0013,-0.0022,-0.0029,-0.005,-0.0071,-0.0077,-0.0074,-0.0092,-0.0132,-0.0132,-0.0132,-0.0086,-0.0082,-0.0079,0,0,0,0,0,0.0065,0.0072,0.0066,0.0065,0.0054,0.0049,0.0046,0.0028,0.0017,0.0015,-0.0007,-0.0028,-0.0074,-0.0073,-0.008,-0.0078,-0.0132,-0.0132,-0.0132,-0.0087,-0.0083,-0.0079,0,0,0,0,0,0,0.0075,0.0069,0.0062,0.0067,0.0058,0.0043,0.004,0.0029,0.001,0.0005,-0.0025,-0.0033,-0.0049,-0.007,-0.0068,-0.009,-0.0107,-0.0108,-0.0071,-0.0067,-0.0064,-0.0042,-0.0094,0,0,0,0,0,0.0079,0.0081,0.0072,0.0075,0.0072,0.0056,0.0051,0.0039,0.0023,0.0014,-0.0009,-0.0033,-0.0051,-0.0064,-0.0084,-0.0095,-0.011,-0.0099,-0.0096,-0.0093,-0.008,-0.0096,-0.0093,-0.013,-0.013,-0.013,0,0,0.0083,0.008,0.0081,0.0077,0.0068,0.0075,0.0051,0.0045,0.0049,0.001,0.0003,-0.0023,-0.0052,-0.0063,-0.0072,-0.0081,-0.0091,-0.0092,-0.0089,-0.0078,-0.0095,-0.0092,-0.0088,-0.013,-0.013,-0.013,0,0,0.01,0.0091,0.0101,0.0098,0.009,0.0083,0.0083,0.0068,0.0058,0.0049,0.0024,0.0005,-0.0028,-0.004,-0.0052,-0.0042,-0.0073,-0.0057,-0.0022,-0.0038,-0.0035,-0.0032,-0.0049,-0.0048,-0.0055,-0.0055,-0.0055,0,0.0106,0.012,0.0103,0.0113,0.0117,0.0091,0.0107,0.0096,0.0076,0.0075,0.0051,0.0016,-0.0012,-0.0015,-0.0013,-0.0033,-0.005,-0.0034,-0.0033,-0.003,-0.0028,-0.0046,-0.0046,-0.0053,-0.0053,-0.0054,-0.0054,0,0.0133,0.0143,0.0149,0.0157,0.0157,0.0164,0.0152,0.0144,0.0127,0.012,0.0106,0.0067,0.0049,0.0032,0.0012,0.0013,-0.0006,-0.0026,-0.0039,-0.0021,-0.0042,-0.0042,-0.005,-0.0051,-0.0051,-0.0052,0,0,0.0158,0.0168,0.0171,0.0185,0.0182,0.0188,0.0192,0.0197,0.0211,0.0175,0.0186,0.0147,0.0125,0.011,0.0076,0.0059,0.0053,0.0025,0.0023,0.0016,0.0015,0.0001,-0.0002,0.003,0.0031,0.0031,-0.0005,0,0.0188,0.0222,0.0217,0.0251,0.027,0.025,0.0262,0.0259,0.025,0.0253,0.0208,0.0204,0.0155,0.0144,0.0121,0.0072,0.0054,0.0064,-0.0006,-0.0008,-0.0018,-0.0002,0.0023,-0.0007,-0.0006,-0.0006,-0.0006,0,0.0225,0.0244,0.0281,0.0307,0.0313,0.0325,0.0345,0.0355,0.0349,0.0339,0.0321,0.0286,0.0257,0.0208,0.014,0.0146,0.009,0.0047,0.0044,0.0017,-0.0023,-0.0025,-0.0008,-0.0007,-0.0007,-0.0007,-0.0007,0,0.026,0.0292,0.0326,0.0333,0.0353,0.0362,0.0375,0.0382,0.0408,0.0399,0.0409,0.0361,0.0341,0.0264,0.0167,0.0154,0.0089,0.0058,-0.0008,-0.0011,-0.0008,-0.001,0.0014,0.0014,0.0014,0.0014,0.0014,0,0.0301,0.0329,0.0344,0.0362,0.0409,0.0404,0.0456,0.0457,0.0477,0.052,0.0459,0.0473,0.0354,0.0296,0.0198,0.0098,0.011,0.0008,-0.0016,0.0008,0.0007,-0.0009,-0.0011,0.0013,0.0013,0.0013,0.0014,0,0.0337,0.0345,0.0387,0.0413,0.0426,0.046,0.0513,0.0555,0.0558,0.0606,0.0603,0.0563,0.0488,0.0363,0.0245,0.0148,0.0046,0.0005,0.0041,0.0021,-0.0052,-0.0051,-0.0067,-0.0068,-0.0069,-0.0069,-0.007,0,0.0358,0.0382,0.0428,0.0461,0.0474,0.0525,0.0567,0.0593,0.0644,0.0666,0.0695,0.0637,0.0612,0.0431,0.0253,0.0084,0.0052,-0.0013,-0.0034,-0.0036,-0.0058,-0.0057,-0.0055,-0.0016,-0.0016,-0.0016,-0.0016,0,0.0402,0.0413,0.0449,0.0516,0.0564,0.0629,0.0688,0.074,0.0773,0.081,0.0846,0.0827,0.0654,0.0498,0.0259,0.0142,0.0014,-0.0018,-0.0021,0.0,0.0009,-0.0012,-0.0011,-0.0015,-0.0016,-0.0016,-0.0016,-0.0016,0.0434,0.0467,0.0513,0.0579,0.0639,0.0718,0.0779,0.0847,0.093,0.0976,0.0956,0.0923,0.074,0.0444,0.0245,0.0024,0.0027,-0.0055,-0.0054,-0.0053,-0.0041,-0.0033,-0.0064,-0.0065,-0.0065,-0.0065,-0.0065,0,0.0477,0.0512,0.0575,0.065,0.0721,0.0744,0.0851,0.0914,0.1012,0.1036,0.1056,0.0892,0.0712,0.0489,0.0171,-0.0016,-0.0029,-0.0081,-0.0053,-0.0051,-0.0051,-0.0038,-0.0061,-0.0062,-0.0062,-0.0063,0,0,0.0499,0.0561,0.0591,0.0704,0.0758,0.0858,0.0921,0.1012,0.1059,0.1096,0.107,0.1016,0.0766,0.0539,0.0292,0.0111,0.0067,0.0072,0.0089,0.0153,0.0156,-0.0014,0.001,0,0,0,0,0]}],[{"header":{"parameterUnit":"m.s-1","parameterCategory":2,"la1":30.2991,"la2":30.254,"lo1":-89.0895,"lo2":-89.0444,"dy":0.0017,"dx":0.0017,"nx":28,"ny":28,"refTime":"2024-12-31T03:00:00:Z","depth":"4","parameterNumber":2,"parameterNumberName":"U-component_of_CURRENTS"},"data":[0,0,0,0,0,0,0,0,0,0,0,0,0,0,0,0,0,0,0,0,0,0,0,0,0,0,0,0,0,0,0,0,0,0,0,0,0,0,0,0,0,0,0,0,0,0,0,0,0,0,0,0,0,0,0,0,0,0,0.1272,0.1273,0,0.1318,0.1318,0.1319,0.1365,0.1365,0.1366,0.1367,0.1408,0.1409,0.1409,0,0,0,0,0,0,0,0,0,0,0,0,0,0.1239,0.124,0.1272,0.1273,0.1274,0.1318,0.1318,0.1319,0.1365,0.1365,0.1366,0.1367,0.1408,0.1409,0.1409,0,0,0,0,0,0,0,0,0,0,0,0,0,0.1265,0.124,0.1272,0.1303,0.1306,0.1317,0.1318,0.1319,0.1364,0.1365,0.1367,0.1368,0.1408,0.1409,0.1409,0.1391,0,0,0.1411,0.1412,0,0,0,0,0,0,0,0,0.1263,0.1266,0.1298,0.1301,0.1304,0.1338,0.1322,0.1343,0.1364,0.1341,0.1367,0.1368,0.1384,0.1387,0.1391,0.1393,0.1395,0.1411,0.1412,0.1412,0.1412,0,0,0,0,0,0,0,0.1262,0.1264,0.1289,0.1298,0.1302,0.1319,0.1324,0.1326,0.1355,0.1343,0.1347,0.1353,0.1386,0.1391,0.1393,0.1396,0.1411,0.1412,0.1412,0.1412,0.148,0.1481,0,0,0,0,0,0,0.1256,0.1262,0.1288,0.1291,0.1287,0.1319,0.1324,0.1325,0.1355,0.1361,0.1352,0.1355,0.1389,0.1392,0.1394,0.145,0.1412,0.1413,0.1413,0.1479,0.148,0.1482,0,0,0,0,0,0,0.1255,0.1258,0.1286,0.1279,0.1284,0.1318,0.1319,0.1325,0.1361,0.1362,0.1368,0.1386,0.139,0.1394,0.1425,0.1449,0.1413,0.1413,0.1477,0.1479,0.1481,0.1513,0,0,0,0,0,0,0.1254,0.1257,0.127,0.1278,0.1284,0.1309,0.1318,0.1325,0.1362,0.1367,0.1392,0.1396,0.1391,0.1424,0.1425,0.1449,0.1414,0.1475,0.1478,0.148,0.151,0.1516,0.152,0,0,0,0,0,0.1252,0.1257,0.127,0.1274,0.1296,0.131,0.1315,0.1342,0.1363,0.1379,0.1402,0.1397,0.1442,0.1425,0.1427,0.1451,0.1474,0.1477,0.148,0.1507,0.1514,0.152,0,0,0,0,0,0,0.125,0.1263,0.1277,0.1287,0.1308,0.1319,0.1339,0.1358,0.1389,0.1404,0.1408,0.1413,0.1451,0.1448,0.143,0.1481,0.146,0.1463,0.148,0.1486,0.1492,0.1503,0.1414,0,0,0,0,0,0.1255,0.1265,0.128,0.1293,0.1305,0.1329,0.1346,0.1364,0.1385,0.1402,0.142,0.1442,0.1459,0.1472,0.1485,0.1506,0.1512,0.1527,0.1532,0.1537,0.1549,0.1579,0.1588,0.1492,0.1492,0.1492,0,0,0.1258,0.1268,0.1276,0.1295,0.1314,0.1335,0.1343,0.1373,0.1399,0.1399,0.1448,0.1462,0.1471,0.15,0.1517,0.1504,0.1567,0.1541,0.1544,0.1554,0.1583,0.1592,0.1601,0.1494,0.1494,0.1494,0,0,0.1265,0.1281,0.1294,0.1313,0.1345,0.1357,0.1373,0.1402,0.1428,0.1466,0.1477,0.151,0.1536,0.1548,0.1555,0.1599,0.1595,0.1607,0.164,0.1669,0.1677,0.1684,0.1697,0.1705,0.1607,0.1607,0.1608,0,0.1276,0.1289,0.1302,0.1322,0.1343,0.1371,0.1395,0.1419,0.1459,0.1483,0.1491,0.1553,0.156,0.1596,0.1614,0.1611,0.1623,0.161,0.1675,0.1682,0.1689,0.1701,0.1709,0.1609,0.1609,0.1609,0.1609,0,0.1286,0.1311,0.1321,0.1356,0.1378,0.1403,0.1433,0.1469,0.1506,0.1531,0.1589,0.1604,0.1644,0.1649,0.1645,0.1697,0.1689,0.1678,0.1655,0.17,0.171,0.1718,0.1612,0.1611,0.1611,0.161,0,0,0.1274,0.132,0.133,0.1353,0.14,0.1415,0.1464,0.1508,0.1551,0.1595,0.1648,0.1683,0.1707,0.1718,0.1722,0.1745,0.1796,0.1737,0.1738,0.1744,0.1858,0.1725,0.1721,0.1799,0.1801,0.1802,0.1842,0,0.1285,0.1322,0.1346,0.1392,0.1412,0.1455,0.1496,0.1544,0.1591,0.1648,0.1681,0.1734,0.1728,0.1757,0.1782,0.1797,0.1821,0.1786,0.1819,0.182,0.1692,0.1727,0.1808,0.1848,0.185,0.1851,0.1852,0,0.1286,0.1311,0.1355,0.141,0.1426,0.1464,0.1537,0.158,0.1659,0.17,0.1761,0.179,0.1845,0.183,0.1887,0.1868,0.1875,0.1876,0.1878,0.175,0.1702,0.1797,0.1867,0.1866,0.1865,0.1864,0.1863,0,0.1256,0.1316,0.1352,0.1372,0.144,0.148,0.1526,0.1604,0.165,0.1746,0.1789,0.1855,0.1899,0.1926,0.1938,0.1926,0.1985,0.1963,0.1849,0.1839,0.1932,0.1924,0.2006,0.2006,0.2006,0.2006,0.2006,0,0.124,0.1273,0.1349,0.1368,0.1424,0.1478,0.155,0.1609,0.1696,0.1745,0.1822,0.1859,0.1929,0.1963,0.1965,0.1927,0.2011,0.1862,0.1844,0.1944,0.1937,0.1937,0.1929,0.2007,0.2007,0.2006,0.2006,0,0.1199,0.1249,0.1296,0.1379,0.1412,0.1457,0.156,0.1602,0.1698,0.1766,0.18,0.1888,0.1925,0.1966,0.2008,0.1945,0.1931,0.1898,0.2005,0.1991,0.1761,0.1754,0.1773,0.1768,0.1765,0.1762,0.1759,0,0.1176,0.1199,0.1297,0.133,0.1375,0.1451,0.1496,0.1599,0.1636,0.1757,0.177,0.1853,0.1892,0.1843,0.1898,0.189,0.1865,0.1845,0.1799,0.1758,0.1739,0.1738,0.1736,0.1753,0.1752,0.1751,0.175,0,0.1134,0.1186,0.1225,0.1292,0.1348,0.1397,0.1468,0.1484,0.1588,0.1688,0.1697,0.1709,0.1743,0.1759,0.1766,0.1757,0.1849,0.1806,0.1813,0.177,0.1735,0.172,0.1722,0.1738,0.174,0.1741,0.1742,0,0.1111,0.1128,0.1188,0.1234,0.1298,0.1313,0.1363,0.1392,0.144,0.1561,0.156,0.1639,0.1725,0.169,0.1697,0.1677,0.1647,0.1583,0.1601,0.1616,0.1543,0.1475,0.1387,0,0,0,0,0,0.1076,0.1081,0.112,0.1154,0.1211,0.1246,0.1323,0.1369,0.1465,0.143,0.1489,0.1509,0.1512,0.1555,0.1502,0.1628,0.1658,0.1559,0.1596,0.1668,0.1683,0.161,0,0,0,0,0,0,0.1049,0.1085,0.109,0.1074,0.1082,0.1126,0.1171,0.1238,0.122,0.1325,0.1335,0.1414,0.1443,0.1527,0.1472,0.1484,0.1473,0.1613,0.1608,0.166,0.1673,0.1685,0.1615,0,0,0,0,0]},{"header":{"parameterUnit":"m.s-1","parameterCategory":2,"la1":30.2991,"la2":30.254,"lo1":-89.0895,"lo2":-89.0444,"dy":0.0017,"dx":0.0017,"nx":28,"ny":28,"refTime":"2024-12-31T03:00:00:Z","depth":"4","parameterNumber":3,"parameterNumberName":"V-component_of_CURRENTS"},"data":[0,0,0,0,0,0,0,0,0,0,0,0,0,0,0,0,0,0,0,0,0,0,0,0,0,0,0,0,0,0,0,0,0,0,0,0,0,0,0,0,0,0,0,0,0,0,0,0,0,0,0,0,0,0,0,0,0,0,0.0287,0.0287,0,0.0275,0.0275,0.0275,0.0272,0.0272,0.0272,0.0272,0.0275,0.0275,0.0275,0,0,0,0,0,0,0,0,0,0,0,0,0,0.0267,0.0267,0.0287,0.0287,0.0287,0.0275,0.0275,0.0275,0.0272,0.0272,0.0272,0.0272,0.0275,0.0275,0.0275,0,0,0,0,0,0,0,0,0,0,0,0,0,0.0267,0.0267,0.0287,0.0284,0.0284,0.0275,0.0275,0.0275,0.0271,0.0272,0.0272,0.0272,0.0275,0.0275,0.0275,0.027,0,0,0.0275,0.0275,0,0,0,0,0,0,0,0,0.0267,0.0267,0.0285,0.0284,0.0284,0.0276,0.0269,0.0274,0.0271,0.0275,0.0272,0.0272,0.0277,0.0277,0.0273,0.027,0.027,0.0275,0.0275,0.0275,0.0275,0,0,0,0,0,0,0,0.0267,0.0267,0.0281,0.0285,0.0284,0.027,0.0271,0.027,0.0275,0.0275,0.0275,0.0275,0.0277,0.0273,0.0273,0.027,0.0275,0.0275,0.0275,0.0274,0.0271,0.0271,0,0,0,0,0,0,0.0272,0.0268,0.0282,0.0281,0.0277,0.0271,0.0271,0.0278,0.0274,0.0274,0.0275,0.0275,0.0273,0.0273,0.0273,0.0285,0.0275,0.0274,0.0274,0.0271,0.0271,0.0271,0,0,0,0,0,0,0.0272,0.0273,0.0282,0.0274,0.0275,0.0271,0.0278,0.0277,0.0277,0.0274,0.0274,0.0276,0.0273,0.0273,0.0279,0.0284,0.0274,0.0274,0.0271,0.0271,0.0271,0.0297,0,0,0,0,0,0,0.0271,0.0274,0.028,0.0275,0.0275,0.0281,0.0278,0.0277,0.0277,0.0277,0.0275,0.0275,0.0273,0.028,0.0279,0.0284,0.0274,0.0271,0.0271,0.0271,0.0297,0.0298,0.03,0,0,0,0,0,0.0271,0.028,0.0281,0.0282,0.0285,0.0282,0.028,0.0278,0.0276,0.0277,0.0279,0.0275,0.0279,0.028,0.0279,0.0284,0.0271,0.0271,0.0271,0.0296,0.0298,0.03,0,0,0,0,0,0,0.0274,0.028,0.0281,0.0292,0.0289,0.0282,0.0284,0.0279,0.028,0.0283,0.0279,0.028,0.0286,0.0279,0.0281,0.0281,0.0272,0.0272,0.0291,0.0293,0.0295,0.0295,0.0274,0,0,0,0,0,0.0278,0.0289,0.0287,0.0296,0.0296,0.029,0.0288,0.0286,0.0285,0.0285,0.0284,0.0282,0.0283,0.0285,0.0283,0.0286,0.0267,0.0286,0.0288,0.0289,0.0288,0.0265,0.0264,0.0271,0.0271,0.0271,0,0,0.0282,0.0287,0.0293,0.0297,0.0296,0.03,0.029,0.029,0.0294,0.0286,0.0293,0.0289,0.0285,0.029,0.0291,0.0287,0.0276,0.0289,0.0291,0.0289,0.0265,0.0264,0.0264,0.0271,0.0271,0.0271,0,0,0.0293,0.0299,0.0311,0.031,0.031,0.0308,0.031,0.0304,0.0303,0.0306,0.0303,0.0301,0.0302,0.0299,0.0299,0.0306,0.0286,0.0305,0.0314,0.0292,0.0291,0.0291,0.0261,0.0258,0.0305,0.0305,0.0305,0,0.0296,0.0313,0.0311,0.0318,0.0323,0.0314,0.0323,0.0319,0.0316,0.0319,0.0313,0.0308,0.0305,0.031,0.0313,0.031,0.0291,0.0311,0.0294,0.0293,0.0292,0.0262,0.0258,0.0306,0.0306,0.0306,0.0306,0,0.0312,0.0325,0.0331,0.0342,0.0345,0.0351,0.0348,0.0347,0.0344,0.0342,0.0342,0.0331,0.0329,0.0325,0.0324,0.0316,0.0303,0.03,0.0291,0.0293,0.0261,0.0256,0.0308,0.0308,0.0307,0.0307,0,0,0.0323,0.034,0.0343,0.0355,0.0359,0.0364,0.0369,0.0375,0.0386,0.0369,0.0374,0.0367,0.0357,0.0354,0.0344,0.0324,0.0298,0.0311,0.0309,0.0284,0.0243,0.0231,0.0224,0.0294,0.0294,0.0293,0.0223,0,0.0337,0.036,0.0364,0.0388,0.04,0.0396,0.0406,0.0407,0.0408,0.0409,0.0385,0.039,0.0369,0.0371,0.0345,0.0317,0.0287,0.0317,0.0242,0.024,0.0232,0.0219,0.0291,0.0219,0.0218,0.0217,0.0216,0,0.0353,0.0368,0.0394,0.0418,0.0424,0.0436,0.0454,0.0463,0.046,0.0457,0.0445,0.0428,0.0401,0.0381,0.0314,0.0335,0.0289,0.0256,0.0252,0.0229,0.0219,0.0217,0.0207,0.0208,0.0208,0.0209,0.021,0,0.0365,0.0391,0.0416,0.0423,0.0445,0.0456,0.0471,0.048,0.05,0.0491,0.0497,0.0457,0.0442,0.0377,0.0309,0.0312,0.0226,0.0221,0.0161,0.0159,0.018,0.0181,0.0162,0.0162,0.0162,0.0162,0.0163,0,0.0379,0.04,0.0426,0.0438,0.0475,0.0481,0.0521,0.0525,0.054,0.0566,0.0528,0.0526,0.0442,0.0385,0.0312,0.0221,0.0225,0.0155,0.0139,0.0191,0.0195,0.0176,0.0178,0.016,0.016,0.0161,0.0161,0,0.0388,0.0403,0.0436,0.0467,0.0483,0.051,0.0561,0.0589,0.0596,0.0621,0.062,0.0578,0.0505,0.041,0.0304,0.0234,0.0144,0.0108,0.0165,0.0155,0.0087,0.0092,0.0029,0.0028,0.0027,0.0027,0.0026,0,0.0394,0.0412,0.0461,0.0488,0.0506,0.0552,0.0588,0.0615,0.0645,0.0654,0.0662,0.0605,0.0561,0.0399,0.0298,0.0144,0.0123,0.0064,0.0075,0.0082,0.0073,0.0079,0.0085,0.0025,0.0024,0.0024,0.0024,0,0.0406,0.0426,0.0455,0.0513,0.0557,0.0609,0.0657,0.0681,0.0709,0.0714,0.0693,0.0611,0.0525,0.04,0.0279,0.0171,0.0097,0.0055,0.0056,0.0066,0.0076,0.0069,0.0076,0.0021,0.0021,0.0022,0.0022,0,0.0418,0.0441,0.0484,0.0536,0.0593,0.0645,0.0672,0.07,0.0728,0.0728,0.0719,0.0628,0.0577,0.0415,0.0306,0.0195,0.0165,0.0119,0.0116,0.0118,0.0166,0.0193,0.0155,0,0,0,0,0,0.0428,0.0456,0.0504,0.056,0.0618,0.0654,0.071,0.0731,0.0752,0.0739,0.073,0.0648,0.0489,0.0427,0.0314,0.0285,0.0143,0.0146,0.0088,0.0004,0.0008,0.0048,0,0,0,0,0,0,0.0434,0.0479,0.0502,0.0572,0.0614,0.0681,0.0719,0.0735,0.0727,0.0727,0.065,0.0608,0.0461,0.0555,0.0309,0.0277,0.022,0.0076,0.0073,0.0002,0.0006,0.0008,0.005,0,0,0,0,0]}]]